owner,sensor,date,latitude,longitude,vertical_datum,wind_speed,wind_to_direction,wind_speed_of_gust,qcFlag 
NDBC,ioos:station:NOAA.NDBC:VENF1:1,2016-03-02T21:00:00Z,27.0720,-82.4530,11.6,4.1,310.0,4.6,'1111122,1111122,1111122' 
NDBC,ioos:station:NOAA.NDBC:VENF1:1,2016-03-02T22:00:00Z,27.0720,-82.4530,11.6,6.7,330.0,7.7,'1111122,1111122,1111122' 
NDBC,ioos:station:NOAA.NDBC:VENF1:1,2016-03-02T23:00:00Z,27.0720,-82.4530,11.6,5.1,320.0,5.7,'1111122,1111122,1111122' 
NDBC,ioos:station:NOAA.NDBC:VENF1:1,2016-03-03T00:00:00Z,27.0720,-82.4530,11.6,4.1,320.0,4.6,'1111122,1111122,1111122' 
NDBC,ioos:station:NOAA.NDBC:VENF1:1,2016-03-03T01:00:00Z,27.0720,-82.4530,11.6,5.1,330.0,5.7,'1111122,1111122,1111122' 
NDBC,ioos:station:NOAA.NDBC:VENF1:1,2016-03-03T02:00:00Z,27.0720,-82.4530,11.6,2.1,360.0,2.6,'1111122,1111122,1111122' 
NDBC,ioos:station:NOAA.NDBC:VENF1:1,2016-03-03T03:00:00Z,27.0720,-82.4530,11.6,1.5,350.0,1.5,'1111122,1111122,1111122' 
NDBC,ioos:station:NOAA.NDBC:VENF1:1,2016-03-03T04:00:00Z,27.0720,-82.4530,11.6,4.6,320.0,5.1,'1111122,1111122,1111122' 
NDBC,ioos:station:NOAA.NDBC:VENF1:1,2016-03-03T05:00:00Z,27.0720,-82.4530,11.6,3.6,330.0,4.1,'1111122,1111122,1111122' 
NDBC,ioos:station:NOAA.NDBC:VENF1:1,2016-03-03T06:00:00Z,27.0720,-82.4530,11.6,3.1,350.0,3.6,'1111122,1111122,1111122' 
NDBC,ioos:station:NOAA.NDBC:VENF1:1,2016-03-03T07:00:00Z,27.0720,-82.4530,11.6,2.6,10.0,3.1,'1111122,1111122,1111122' 
NDBC,ioos:station:NOAA.NDBC:VENF1:1,2016-03-03T08:00:00Z,27.0720,-82.4530,11.6,2.6,10.0,2.6,'1111122,1111122,1111122' 
NDBC,ioos:station:NOAA.NDBC:VENF1:1,2016-03-03T09:00:00Z,27.0720,-82.4530,11.6,2.6,360.0,3.1,'1111122,1111122,1111122' 
NDBC,ioos:station:NOAA.NDBC:VENF1:1,2016-03-03T10:00:00Z,27.0720,-82.4530,11.6,1.5,10.0,1.5,'1111122,1111122,1111122' 
NDBC,ioos:station:NOAA.NDBC:VENF1:1,2016-03-03T11:00:00Z,27.0720,-82.4530,11.6,2.1,30.0,2.1,'1111122,1111122,1111122' 
NDBC,ioos:station:NOAA.NDBC:VENF1:1,2016-03-03T12:00:00Z,27.0720,-82.4530,11.6,1.5,30.0,1.5,'1111122,1111122,1111122' 
NDBC,ioos:station:NOAA.NDBC:VENF1:1,2016-03-03T13:00:00Z,27.0720,-82.4530,11.6,3.1,60.0,4.1,'1111122,1111122,1111122' 
NDBC,ioos:station:NOAA.NDBC:VENF1:1,2016-03-03T14:00:00Z,27.0720,-82.4530,11.6,3.1,70.0,4.1,'1111122,1111122,1111122' 
NDBC,ioos:station:NOAA.NDBC:VENF1:1,2016-03-03T15:00:00Z,27.0720,-82.4530,11.6,1.0,110.0,1.5,'1111122,1111122,1111122' 
NDBC,ioos:station:NOAA.NDBC:VENF1:1,2016-03-03T16:00:00Z,27.0720,-82.4530,11.6,2.1,240.0,2.1,'1111122,1111122,1111122' 
NDBC,ioos:station:NOAA.NDBC:VENF1:1,2016-03-03T17:00:00Z,27.0720,-82.4530,11.6,2.1,220.0,2.1,'1111122,1111122,1111122' 
NDBC,ioos:station:NOAA.NDBC:VENF1:1,2016-03-03T18:00:00Z,27.0720,-82.4530,11.6,3.1,230.0,3.1,'1111122,1111122,1111122' 
NDBC,ioos:station:NOAA.NDBC:VENF1:1,2016-03-03T19:00:00Z,27.0720,-82.4530,11.6,3.6,190.0,3.6,'1111122,1111122,1111122' 
NDBC,ioos:station:NOAA.NDBC:VENF1:1,2016-03-03T20:00:00Z,27.0720,-82.4530,11.6,3.6,190.0,4.1,'1111122,1111122,1111122' 
NDBC,ioos:station:NOAA.NDBC:VENF1:1,2016-03-03T21:00:00Z,27.0720,-82.4530,11.6,3.1,190.0,3.1,'1111122,1111122,1111122' 
NDBC,ioos:station:NOAA.NDBC:VENF1:1,2016-03-03T22:00:00Z,27.0720,-82.4530,11.6,2.1,190.0,2.1,'1111122,1111122,1111122' 
NDBC,ioos:station:NOAA.NDBC:VENF1:1,2016-03-03T23:00:00Z,27.0720,-82.4530,11.6,0.0,-9999.0,0.5,'1114422,1111122,1111122' 
NDBC,ioos:station:NOAA.NDBC:VENF1:1,2016-03-04T00:00:00Z,27.0720,-82.4530,11.6,0.5,320.0,1.0,'1111122,1111122,1111122' 
NDBC,ioos:station:NOAA.NDBC:VENF1:1,2016-03-04T02:00:00Z,27.0720,-82.4530,11.6,1.0,170.0,1.5,'1111122,1111122,1111122' 
NDBC,ioos:station:NOAA.NDBC:VENF1:1,2016-03-04T03:00:00Z,27.0720,-82.4530,11.6,3.6,170.0,3.6,'1111122,1111122,1111122' 
NDBC,ioos:station:NOAA.NDBC:VENF1:1,2016-03-04T04:00:00Z,27.0720,-82.4530,11.6,3.1,170.0,3.1,'1111122,1111122,1111122' 
NDBC,ioos:station:NOAA.NDBC:VENF1:1,2016-03-04T05:00:00Z,27.0720,-82.4530,11.6,2.6,170.0,3.1,'1111122,1111122,1111122' 
NDBC,ioos:station:NOAA.NDBC:VENF1:1,2016-03-04T06:00:00Z,27.0720,-82.4530,11.6,1.5,210.0,2.1,'1111122,1111122,1111122' 
NDBC,ioos:station:NOAA.NDBC:VENF1:1,2016-03-04T07:00:00Z,27.0720,-82.4530,11.6,3.1,190.0,3.6,'1111122,1111122,1111122' 
NDBC,ioos:station:NOAA.NDBC:VENF1:1,2016-03-04T08:00:00Z,27.0720,-82.4530,11.6,4.1,220.0,4.1,'1111122,1111122,1111122' 
NDBC,ioos:station:NOAA.NDBC:VENF1:1,2016-03-04T09:00:00Z,27.0720,-82.4530,11.6,4.6,210.0,5.7,'1111122,1111122,1111122' 
NDBC,ioos:station:NOAA.NDBC:VENF1:1,2016-03-04T10:00:00Z,27.0720,-82.4530,11.6,5.7,210.0,6.2,'1111122,1111122,1111122' 
NDBC,ioos:station:NOAA.NDBC:VENF1:1,2016-03-04T11:00:00Z,27.0720,-82.4530,11.6,2.6,270.0,3.6,'1111122,1111122,1111122' 
NDBC,ioos:station:NOAA.NDBC:VENF1:1,2016-03-04T12:00:00Z,27.0720,-82.4530,11.6,2.6,260.0,3.1,'1111122,1111122,1111122' 
NDBC,ioos:station:NOAA.NDBC:VENF1:1,2016-03-04T13:00:00Z,27.0720,-82.4530,11.6,3.6,230.0,4.1,'1111122,1111122,1111122' 
NDBC,ioos:station:NOAA.NDBC:VENF1:1,2016-03-04T14:00:00Z,27.0720,-82.4530,11.6,2.6,320.0,2.6,'1111122,1111122,1111122' 
NDBC,ioos:station:NOAA.NDBC:VENF1:1,2016-03-04T15:00:00Z,27.0720,-82.4530,11.6,1.5,280.0,1.5,'1111122,1111122,1111122' 
NDBC,ioos:station:NOAA.NDBC:VENF1:1,2016-03-04T16:00:00Z,27.0720,-82.4530,11.6,3.1,250.0,3.1,'1111122,1111122,1111122' 
NDBC,ioos:station:NOAA.NDBC:VENF1:1,2016-03-04T17:00:00Z,27.0720,-82.4530,11.6,4.1,270.0,4.1,'1111122,1111122,1111122' 
NDBC,ioos:station:NOAA.NDBC:VENF1:1,2016-03-04T18:00:00Z,27.0720,-82.4530,11.6,6.2,310.0,6.7,'1111122,1111122,1111122' 
NDBC,ioos:station:NOAA.NDBC:VENF1:1,2016-03-04T19:00:00Z,27.0720,-82.4530,11.6,8.8,320.0,9.3,'1111122,1111122,1111122' 
NDBC,ioos:station:NOAA.NDBC:VENF1:1,2016-03-04T20:00:00Z,27.0720,-82.4530,11.6,9.8,320.0,10.3,'1111122,1111122,1111122' 
NDBC,ioos:station:NOAA.NDBC:VENF1:1,2016-03-04T21:00:00Z,27.0720,-82.4530,11.6,9.8,330.0,10.8,'1111122,1111122,1111122' 
NDBC,ioos:station:NOAA.NDBC:VENF1:1,2016-03-04T22:00:00Z,27.0720,-82.4530,11.6,10.8,320.0,11.3,'1111122,1111122,1111122' 
NDBC,ioos:station:NOAA.NDBC:VENF1:1,2016-03-04T23:00:00Z,27.0720,-82.4530,11.6,7.7,330.0,8.8,'1111122,1111122,1111122' 
NDBC,ioos:station:NOAA.NDBC:VENF1:1,2016-03-05T00:00:00Z,27.0720,-82.4530,11.6,8.8,330.0,9.3,'1111122,1111122,1111122' 
NDBC,ioos:station:NOAA.NDBC:VENF1:1,2016-03-05T01:00:00Z,27.0720,-82.4530,11.6,8.8,330.0,9.8,'1111122,1111122,1111122' 
NDBC,ioos:station:NOAA.NDBC:VENF1:1,2016-03-05T02:00:00Z,27.0720,-82.4530,11.6,7.7,340.0,8.8,'1111122,1111122,1111122' 
NDBC,ioos:station:NOAA.NDBC:VENF1:1,2016-03-05T03:00:00Z,27.0720,-82.4530,11.6,4.1,10.0,5.1,'1111122,1111122,1111122' 
NDBC,ioos:station:NOAA.NDBC:VENF1:1,2016-03-05T04:00:00Z,27.0720,-82.4530,11.6,4.1,360.0,5.1,'1111122,1111122,1111122' 
NDBC,ioos:station:NOAA.NDBC:VENF1:1,2016-03-05T05:00:00Z,27.0720,-82.4530,11.6,1.5,20.0,2.1,'1111122,1111122,1111122' 
NDBC,ioos:station:NOAA.NDBC:VENF1:1,2016-03-05T06:00:00Z,27.0720,-82.4530,11.6,3.6,50.0,4.6,'1111122,1111122,1111122' 
NDBC,ioos:station:NOAA.NDBC:VENF1:1,2016-03-05T07:00:00Z,27.0720,-82.4530,11.6,2.6,60.0,4.1,'1111122,1111122,1111122' 
NDBC,ioos:station:NOAA.NDBC:VENF1:1,2016-03-05T08:00:00Z,27.0720,-82.4530,11.6,2.6,50.0,3.1,'1111122,1111122,1111122' 
NDBC,ioos:station:NOAA.NDBC:VENF1:1,2016-03-05T09:00:00Z,27.0720,-82.4530,11.6,3.6,40.0,4.6,'1111122,1111122,1111122' 
NDBC,ioos:station:NOAA.NDBC:VENF1:1,2016-03-05T10:00:00Z,27.0720,-82.4530,11.6,4.6,30.0,6.2,'1111122,1111122,1111122' 
NDBC,ioos:station:NOAA.NDBC:VENF1:1,2016-03-05T11:00:00Z,27.0720,-82.4530,11.6,5.1,30.0,6.7,'1111122,1111122,1111122' 
NDBC,ioos:station:NOAA.NDBC:VENF1:1,2016-03-05T12:00:00Z,27.0720,-82.4530,11.6,4.1,30.0,5.1,'1111122,1111122,1111122' 
NDBC,ioos:station:NOAA.NDBC:VENF1:1,2016-03-05T13:00:00Z,27.0720,-82.4530,11.6,4.1,40.0,6.2,'1111122,1111122,1111122' 
NDBC,ioos:station:NOAA.NDBC:VENF1:1,2016-03-05T14:00:00Z,27.0720,-82.4530,11.6,3.6,40.0,4.6,'1111122,1111122,1111122' 
NDBC,ioos:station:NOAA.NDBC:VENF1:1,2016-03-05T15:00:00Z,27.0720,-82.4530,11.6,3.1,10.0,3.6,'1111122,1111122,1111122' 
NDBC,ioos:station:NOAA.NDBC:VENF1:1,2016-03-05T16:00:00Z,27.0720,-82.4530,11.6,3.1,20.0,3.6,'1111122,1111122,1111122' 
NDBC,ioos:station:NOAA.NDBC:VENF1:1,2016-03-05T17:00:00Z,27.0720,-82.4530,11.6,4.6,350.0,5.7,'1111122,1111122,1111122' 
NDBC,ioos:station:NOAA.NDBC:VENF1:1,2016-03-05T18:00:00Z,27.0720,-82.4530,11.6,5.1,310.0,5.7,'1111122,1111122,1111122' 
NDBC,ioos:station:NOAA.NDBC:VENF1:1,2016-03-05T19:00:00Z,27.0720,-82.4530,11.6,6.7,310.0,6.7,'1111122,1111122,1111122' 
NDBC,ioos:station:NOAA.NDBC:VENF1:1,2016-03-05T20:00:00Z,27.0720,-82.4530,11.6,7.7,320.0,8.2,'1111122,1111122,1111122' 
NDBC,ioos:station:NOAA.NDBC:VENF1:1,2016-03-05T21:00:00Z,27.0720,-82.4530,11.6,7.7,310.0,8.2,'1111122,1111122,1111122' 
NDBC,ioos:station:NOAA.NDBC:VENF1:1,2016-03-05T22:00:00Z,27.0720,-82.4530,11.6,8.8,320.0,9.8,'1111122,1111122,1111122' 
NDBC,ioos:station:NOAA.NDBC:VENF1:1,2016-03-05T23:00:00Z,27.0720,-82.4530,11.6,9.8,320.0,10.3,'1111122,1111122,1111122' 
NDBC,ioos:station:NOAA.NDBC:VENF1:1,2016-03-06T00:00:00Z,27.0720,-82.4530,11.6,9.3,330.0,9.8,'1111122,1111122,1111122' 
NDBC,ioos:station:NOAA.NDBC:VENF1:1,2016-03-06T01:00:00Z,27.0720,-82.4530,11.6,7.2,340.0,8.2,'1111122,1111122,1111122' 
NDBC,ioos:station:NOAA.NDBC:VENF1:1,2016-03-06T02:00:00Z,27.0720,-82.4530,11.6,6.7,330.0,7.2,'1111122,1111122,1111122' 
NDBC,ioos:station:NOAA.NDBC:VENF1:1,2016-03-06T03:00:00Z,27.0720,-82.4530,11.6,7.7,330.0,8.8,'1111122,1111122,1111122' 
NDBC,ioos:station:NOAA.NDBC:VENF1:1,2016-03-06T04:00:00Z,27.0720,-82.4530,11.6,8.2,340.0,8.8,'1111122,1111122,1111122' 
NDBC,ioos:station:NOAA.NDBC:VENF1:1,2016-03-06T05:00:00Z,27.0720,-82.4530,11.6,4.1,10.0,4.6,'1111122,1111122,1111122' 
NDBC,ioos:station:NOAA.NDBC:VENF1:1,2016-03-06T06:00:00Z,27.0720,-82.4530,11.6,3.6,30.0,5.7,'1111122,1111122,1111122' 
NDBC,ioos:station:NOAA.NDBC:VENF1:1,2016-03-06T07:00:00Z,27.0720,-82.4530,11.6,3.6,10.0,4.6,'1111122,1111122,1111122' 
NDBC,ioos:station:NOAA.NDBC:VENF1:1,2016-03-06T08:00:00Z,27.0720,-82.4530,11.6,3.6,20.0,4.6,'1111122,1111122,1111122' 
NDBC,ioos:station:NOAA.NDBC:VENF1:1,2016-03-06T09:00:00Z,27.0720,-82.4530,11.6,4.1,360.0,5.1,'1111122,1111122,1111122' 
NDBC,ioos:station:NOAA.NDBC:VENF1:1,2016-03-06T10:00:00Z,27.0720,-82.4530,11.6,4.1,10.0,5.1,'1111122,1111122,1111122' 
NDBC,ioos:station:NOAA.NDBC:VENF1:1,2016-03-06T11:00:00Z,27.0720,-82.4530,11.6,2.6,30.0,3.1,'1111122,1111122,1111122' 
NDBC,ioos:station:NOAA.NDBC:VENF1:1,2016-03-06T12:00:00Z,27.0720,-82.4530,11.6,4.1,10.0,5.1,'1111122,1111122,1111122' 
NDBC,ioos:station:NOAA.NDBC:VENF1:1,2016-03-06T13:00:00Z,27.0720,-82.4530,11.6,6.2,10.0,7.2,'1111122,1111122,1111122' 
NDBC,ioos:station:NOAA.NDBC:VENF1:1,2016-03-06T14:00:00Z,27.0720,-82.4530,11.6,6.7,20.0,9.8,'1111122,1111122,1111122' 
NDBC,ioos:station:NOAA.NDBC:VENF1:1,2016-03-06T15:00:00Z,27.0720,-82.4530,11.6,7.2,30.0,8.8,'1111122,1111122,1111122' 
NDBC,ioos:station:NOAA.NDBC:VENF1:1,2016-03-06T16:00:00Z,27.0720,-82.4530,11.6,6.2,10.0,8.2,'1111122,1111122,1111122' 
NDBC,ioos:station:NOAA.NDBC:VENF1:1,2016-03-06T17:00:00Z,27.0720,-82.4530,11.6,5.1,50.0,8.2,'1111122,1111122,1111122' 
NDBC,ioos:station:NOAA.NDBC:VENF1:1,2016-03-06T18:00:00Z,27.0720,-82.4530,11.6,3.6,340.0,4.6,'1111122,1111122,1111122' 
NDBC,ioos:station:NOAA.NDBC:VENF1:1,2016-03-06T19:00:00Z,27.0720,-82.4530,11.6,7.2,300.0,8.2,'1111122,1111122,1111122' 
NDBC,ioos:station:NOAA.NDBC:VENF1:1,2016-03-06T20:00:00Z,27.0720,-82.4530,11.6,7.2,310.0,7.7,'1111122,1111122,1111122' 
NDBC,ioos:station:NOAA.NDBC:VENF1:1,2016-03-06T21:00:00Z,27.0720,-82.4530,11.6,8.2,320.0,9.3,'1111122,1111122,1111122' 
NDBC,ioos:station:NOAA.NDBC:VENF1:1,2016-03-06T22:00:00Z,27.0720,-82.4530,11.6,7.2,330.0,7.7,'1111122,1111122,1111122' 
NDBC,ioos:station:NOAA.NDBC:VENF1:1,2016-03-06T23:00:00Z,27.0720,-82.4530,11.6,7.2,340.0,8.2,'1111122,1111122,1111122' 
NDBC,ioos:station:NOAA.NDBC:VENF1:1,2016-03-07T00:00:00Z,27.0720,-82.4530,11.6,3.6,350.0,4.1,'1111122,1111122,1111122' 
NDBC,ioos:station:NOAA.NDBC:VENF1:1,2016-03-07T01:00:00Z,27.0720,-82.4530,11.6,3.1,60.0,3.6,'1111122,1111122,1111122' 
NDBC,ioos:station:NOAA.NDBC:VENF1:1,2016-03-07T02:00:00Z,27.0720,-82.4530,11.6,5.1,60.0,7.2,'1111122,1111122,1111122' 
NDBC,ioos:station:NOAA.NDBC:VENF1:1,2016-03-07T03:00:00Z,27.0720,-82.4530,11.6,4.6,80.0,6.2,'1111122,1111122,1111122' 
NDBC,ioos:station:NOAA.NDBC:VENF1:1,2016-03-07T04:00:00Z,27.0720,-82.4530,11.6,3.1,90.0,3.6,'1111122,1111122,1111122' 
NDBC,ioos:station:NOAA.NDBC:VENF1:1,2016-03-07T05:00:00Z,27.0720,-82.4530,11.6,2.6,60.0,4.1,'1111122,1111122,1111122' 
NDBC,ioos:station:NOAA.NDBC:VENF1:1,2016-03-07T06:00:00Z,27.0720,-82.4530,11.6,2.6,60.0,3.6,'1111122,1111122,1111122' 
NDBC,ioos:station:NOAA.NDBC:VENF1:1,2016-03-07T07:00:00Z,27.0720,-82.4530,11.6,3.1,50.0,3.6,'1111122,1111122,1111122' 
NDBC,ioos:station:NOAA.NDBC:VENF1:1,2016-03-07T08:00:00Z,27.0720,-82.4530,11.6,2.6,60.0,3.6,'1111122,1111122,1111122' 
NDBC,ioos:station:NOAA.NDBC:VENF1:1,2016-03-07T09:00:00Z,27.0720,-82.4530,11.6,3.1,50.0,4.1,'1111122,1111122,1111122' 
NDBC,ioos:station:NOAA.NDBC:VENF1:1,2016-03-07T10:00:00Z,27.0720,-82.4530,11.6,3.1,50.0,4.1,'1111122,1111122,1111122' 
NDBC,ioos:station:NOAA.NDBC:VENF1:1,2016-03-07T11:00:00Z,27.0720,-82.4530,11.6,3.1,50.0,3.6,'1111122,1111122,1111122' 
NDBC,ioos:station:NOAA.NDBC:VENF1:1,2016-03-07T13:00:00Z,27.0720,-82.4530,11.6,3.1,60.0,4.1,'1111122,1111122,1111122' 
NDBC,ioos:station:NOAA.NDBC:VENF1:1,2016-03-07T14:00:00Z,27.0720,-82.4530,11.6,3.1,70.0,4.1,'1111122,1111122,1111122' 
NDBC,ioos:station:NOAA.NDBC:VENF1:1,2016-03-07T15:00:00Z,27.0720,-82.4530,11.6,4.1,90.0,4.6,'1111122,1111122,1111122' 
NDBC,ioos:station:NOAA.NDBC:VENF1:1,2016-03-07T16:00:00Z,27.0720,-82.4530,11.6,6.2,110.0,8.8,'1111122,1111122,1111122' 
NDBC,ioos:station:NOAA.NDBC:VENF1:1,2016-03-07T17:00:00Z,27.0720,-82.4530,11.6,8.8,130.0,9.8,'1111122,1111122,1111122' 
NDBC,ioos:station:NOAA.NDBC:VENF1:1,2016-03-07T19:00:00Z,27.0720,-82.4530,11.6,6.7,130.0,8.8,'1111122,1111122,1111122' 
NDBC,ioos:station:NOAA.NDBC:VENF1:1,2016-03-07T20:00:00Z,27.0720,-82.4530,11.6,5.7,110.0,6.7,'1111122,1111122,1111122' 
NDBC,ioos:station:NOAA.NDBC:VENF1:1,2016-03-07T21:00:00Z,27.0720,-82.4530,11.6,4.1,220.0,4.6,'1111122,1111122,1111122' 
NDBC,ioos:station:NOAA.NDBC:VENF1:1,2016-03-08T11:00:00Z,27.0720,-82.4530,11.6,3.6,80.0,4.1,'1111122,1111122,1111122' 
NDBC,ioos:station:NOAA.NDBC:VENF1:1,2016-03-08T12:00:00Z,27.0720,-82.4530,11.6,3.6,80.0,4.1,'1111122,1111122,1111122' 
NDBC,ioos:station:NOAA.NDBC:VENF1:1,2016-03-08T13:00:00Z,27.0720,-82.4530,11.6,4.1,80.0,4.6,'1111122,1111122,1111122' 
NDBC,ioos:station:NOAA.NDBC:VENF1:1,2016-03-08T14:00:00Z,27.0720,-82.4530,11.6,4.1,80.0,4.6,'1111122,1111122,1111122' 
NDBC,ioos:station:NOAA.NDBC:VENF1:1,2016-03-08T15:00:00Z,27.0720,-82.4530,11.6,4.6,100.0,6.7,'1111122,1111122,1111122' 
NDBC,ioos:station:NOAA.NDBC:VENF1:1,2016-03-08T16:00:00Z,27.0720,-82.4530,11.6,8.8,120.0,10.3,'1111122,1111122,1111122' 
NDBC,ioos:station:NOAA.NDBC:VENF1:1,2016-03-08T17:00:00Z,27.0720,-82.4530,11.6,6.7,90.0,9.8,'1111122,1111122,1111122' 
NDBC,ioos:station:NOAA.NDBC:VENF1:1,2016-03-08T18:00:00Z,27.0720,-82.4530,11.6,6.7,110.0,8.2,'1111122,1111122,1111122' 
NDBC,ioos:station:NOAA.NDBC:VENF1:1,2016-03-08T19:00:00Z,27.0720,-82.4530,11.6,7.7,140.0,8.8,'1111122,1111122,1111122' 
NDBC,ioos:station:NOAA.NDBC:VENF1:1,2016-03-08T20:00:00Z,27.0720,-82.4530,11.6,6.7,120.0,9.3,'1111122,1111122,1111122' 
NDBC,ioos:station:NOAA.NDBC:VENF1:1,2016-03-08T21:00:00Z,27.0720,-82.4530,11.6,5.7,120.0,7.2,'1111122,1111122,1111122' 
NDBC,ioos:station:NOAA.NDBC:VENF1:1,2016-03-08T22:00:00Z,27.0720,-82.4530,11.6,4.6,100.0,6.7,'1111122,1111122,1111122' 
NDBC,ioos:station:NOAA.NDBC:VENF1:1,2016-03-08T23:00:00Z,27.0720,-82.4530,11.6,4.6,90.0,6.7,'1111122,1111122,1111122' 
NDBC,ioos:station:NOAA.NDBC:VENF1:1,2016-03-09T00:00:00Z,27.0720,-82.4530,11.6,4.1,120.0,5.1,'1111122,1111122,1111122' 
NDBC,ioos:station:NOAA.NDBC:VENF1:1,2016-03-09T01:00:00Z,27.0720,-82.4530,11.6,3.6,110.0,4.6,'1111122,1111122,1111122' 
NDBC,ioos:station:NOAA.NDBC:VENF1:1,2016-03-09T02:00:00Z,27.0720,-82.4530,11.6,4.1,100.0,5.1,'1111122,1111122,1111122' 
NDBC,ioos:station:NOAA.NDBC:VENF1:1,2016-03-09T03:00:00Z,27.0720,-82.4530,11.6,4.6,100.0,5.7,'1111122,1111122,1111122' 
NDBC,ioos:station:NOAA.NDBC:VENF1:1,2016-03-09T05:00:00Z,27.0720,-82.4530,11.6,3.6,110.0,4.6,'1111122,1111122,1111122' 
NDBC,ioos:station:NOAA.NDBC:VENF1:1,2016-03-09T06:00:00Z,27.0720,-82.4530,11.6,4.1,100.0,5.7,'1111122,1111122,1111122' 
NDBC,ioos:station:NOAA.NDBC:VENF1:1,2016-03-09T07:00:00Z,27.0720,-82.4530,11.6,3.6,100.0,4.6,'1111122,1111122,1111122' 
NDBC,ioos:station:NOAA.NDBC:VENF1:1,2016-03-09T08:00:00Z,27.0720,-82.4530,11.6,4.1,110.0,5.7,'1111122,1111122,1111122' 
NDBC,ioos:station:NOAA.NDBC:VENF1:1,2016-03-09T09:00:00Z,27.0720,-82.4530,11.6,3.6,110.0,4.6,'1111122,1111122,1111122' 
NDBC,ioos:station:NOAA.NDBC:VENF1:1,2016-03-09T10:00:00Z,27.0720,-82.4530,11.6,4.6,110.0,5.7,'1111122,1111122,1111122' 
NDBC,ioos:station:NOAA.NDBC:VENF1:1,2016-03-09T11:00:00Z,27.0720,-82.4530,11.6,4.1,80.0,4.6,'1111122,1111122,1111122' 
NDBC,ioos:station:NOAA.NDBC:VENF1:1,2016-03-09T12:00:00Z,27.0720,-82.4530,11.6,3.6,80.0,4.1,'1111122,1111122,1111122' 
NDBC,ioos:station:NOAA.NDBC:VENF1:1,2016-03-09T13:00:00Z,27.0720,-82.4530,11.6,3.6,110.0,5.1,'1111122,1111122,1111122' 
NDBC,ioos:station:NOAA.NDBC:VENF1:1,2016-03-09T14:00:00Z,27.0720,-82.4530,11.6,3.6,120.0,5.7,'1111122,1111122,1111122' 
NDBC,ioos:station:NOAA.NDBC:VENF1:1,2016-03-09T15:00:00Z,27.0720,-82.4530,11.6,5.1,150.0,6.7,'1111122,1111122,1111122' 
NDBC,ioos:station:NOAA.NDBC:VENF1:1,2016-03-09T16:00:00Z,27.0720,-82.4530,11.6,7.7,160.0,8.2,'1111122,1111122,1111122' 
NDBC,ioos:station:NOAA.NDBC:VENF1:1,2016-03-09T17:00:00Z,27.0720,-82.4530,11.6,7.7,120.0,10.3,'1111122,1111122,1111122' 
NDBC,ioos:station:NOAA.NDBC:VENF1:1,2016-03-09T18:00:00Z,27.0720,-82.4530,11.6,8.8,130.0,10.3,'1111122,1111122,1111122' 
NDBC,ioos:station:NOAA.NDBC:VENF1:1,2016-03-09T19:00:00Z,27.0720,-82.4530,11.6,5.7,130.0,7.7,'1111122,1111122,1111122' 
NDBC,ioos:station:NOAA.NDBC:VENF1:1,2016-03-09T20:00:00Z,27.0720,-82.4530,11.6,4.1,170.0,5.7,'1111122,1111122,1111122' 
NDBC,ioos:station:NOAA.NDBC:VENF1:1,2016-03-09T21:00:00Z,27.0720,-82.4530,11.6,5.7,180.0,6.2,'1111122,1111122,1111122' 
NDBC,ioos:station:NOAA.NDBC:VENF1:1,2016-03-09T22:00:00Z,27.0720,-82.4530,11.6,5.1,160.0,5.1,'1111122,1111122,1111122' 
NDBC,ioos:station:NOAA.NDBC:VENF1:1,2016-03-09T23:00:00Z,27.0720,-82.4530,11.6,4.6,150.0,5.1,'1111122,1111122,1111122' 
NDBC,ioos:station:NOAA.NDBC:VENF1:1,2016-03-10T00:00:00Z,27.0720,-82.4530,11.6,3.6,160.0,3.6,'1111122,1111122,1111122' 
NDBC,ioos:station:NOAA.NDBC:VENF1:1,2016-03-10T01:00:00Z,27.0720,-82.4530,11.6,3.6,110.0,4.6,'1111122,1111122,1111122' 
NDBC,ioos:station:NOAA.NDBC:VENF1:1,2016-03-10T02:00:00Z,27.0720,-82.4530,11.6,3.6,110.0,4.6,'1111122,1111122,1111122' 
NDBC,ioos:station:NOAA.NDBC:VENF1:1,2016-03-10T03:00:00Z,27.0720,-82.4530,11.6,3.6,100.0,4.6,'1111122,1111122,1111122' 
NDBC,ioos:station:NOAA.NDBC:VENF1:1,2016-03-10T04:00:00Z,27.0720,-82.4530,11.6,4.6,90.0,5.7,'1111122,1111122,1111122' 
NDBC,ioos:station:NOAA.NDBC:VENF1:1,2016-03-10T05:00:00Z,27.0720,-82.4530,11.6,4.1,90.0,4.6,'1111122,1111122,1111122' 
NDBC,ioos:station:NOAA.NDBC:VENF1:1,2016-03-10T06:00:00Z,27.0720,-82.4530,11.6,4.1,80.0,5.1,'1111122,1111122,1111122' 
NDBC,ioos:station:NOAA.NDBC:VENF1:1,2016-03-10T07:00:00Z,27.0720,-82.4530,11.6,4.1,90.0,5.1,'1111122,1111122,1111122' 
NDBC,ioos:station:NOAA.NDBC:VENF1:1,2016-03-10T08:00:00Z,27.0720,-82.4530,11.6,4.6,90.0,5.7,'1111122,1111122,1111122' 
NDBC,ioos:station:NOAA.NDBC:VENF1:1,2016-03-10T09:00:00Z,27.0720,-82.4530,11.6,4.1,90.0,5.1,'1111122,1111122,1111122' 
NDBC,ioos:station:NOAA.NDBC:VENF1:1,2016-03-10T10:00:00Z,27.0720,-82.4530,11.6,4.6,80.0,5.7,'1111122,1111122,1111122' 
NDBC,ioos:station:NOAA.NDBC:VENF1:1,2016-03-10T12:00:00Z,27.0720,-82.4530,11.6,4.6,90.0,6.2,'1111122,1111122,1111122' 
NDBC,ioos:station:NOAA.NDBC:VENF1:1,2016-03-10T13:00:00Z,27.0720,-82.4530,11.6,4.6,90.0,6.2,'1111122,1111122,1111122' 
NDBC,ioos:station:NOAA.NDBC:VENF1:1,2016-03-10T14:00:00Z,27.0720,-82.4530,11.6,5.7,110.0,6.7,'1111122,1111122,1111122' 
NDBC,ioos:station:NOAA.NDBC:VENF1:1,2016-03-10T15:00:00Z,27.0720,-82.4530,11.6,9.3,130.0,11.8,'1111122,1111122,1111122' 
NDBC,ioos:station:NOAA.NDBC:VENF1:1,2016-03-10T16:00:00Z,27.0720,-82.4530,11.6,9.8,150.0,11.3,'1111122,1111122,1111122' 
NDBC,ioos:station:NOAA.NDBC:VENF1:1,2016-03-10T17:00:00Z,27.0720,-82.4530,11.6,8.2,170.0,8.8,'1111122,1111122,1111122' 
NDBC,ioos:station:NOAA.NDBC:VENF1:1,2016-03-10T18:00:00Z,27.0720,-82.4530,11.6,4.6,170.0,5.1,'1111122,1111122,1111122' 
NDBC,ioos:station:NOAA.NDBC:VENF1:1,2016-03-10T19:00:00Z,27.0720,-82.4530,11.6,7.2,180.0,8.2,'1111122,1111122,1111122' 
NDBC,ioos:station:NOAA.NDBC:VENF1:1,2016-03-10T20:00:00Z,27.0720,-82.4530,11.6,6.2,170.0,6.7,'1111122,1111122,1111122' 
NDBC,ioos:station:NOAA.NDBC:VENF1:1,2016-03-10T21:00:00Z,27.0720,-82.4530,11.6,6.2,160.0,6.7,'1111122,1111122,1111122' 
NDBC,ioos:station:NOAA.NDBC:VENF1:1,2016-03-10T22:00:00Z,27.0720,-82.4530,11.6,5.7,150.0,6.2,'1111122,1111122,1111122' 
NDBC,ioos:station:NOAA.NDBC:VENF1:1,2016-03-10T23:00:00Z,27.0720,-82.4530,11.6,5.7,150.0,6.2,'1111122,1111122,1111122' 
NDBC,ioos:station:NOAA.NDBC:VENF1:1,2016-03-11T00:00:00Z,27.0720,-82.4530,11.6,3.6,130.0,4.6,'1111122,1111122,1111122' 
NDBC,ioos:station:NOAA.NDBC:VENF1:1,2016-03-11T01:00:00Z,27.0720,-82.4530,11.6,3.1,120.0,4.1,'1111122,1111122,1111122' 
NDBC,ioos:station:NOAA.NDBC:VENF1:1,2016-03-11T02:00:00Z,27.0720,-82.4530,11.6,4.1,110.0,4.6,'1111122,1111122,1111122' 
NDBC,ioos:station:NOAA.NDBC:VENF1:1,2016-03-11T03:00:00Z,27.0720,-82.4530,11.6,2.6,120.0,3.6,'1111122,1111122,1111122' 
NDBC,ioos:station:NOAA.NDBC:VENF1:1,2016-03-11T04:00:00Z,27.0720,-82.4530,11.6,2.1,80.0,2.6,'1111122,1111122,1111122' 
NDBC,ioos:station:NOAA.NDBC:VENF1:1,2016-03-11T05:00:00Z,27.0720,-82.4530,11.6,3.1,70.0,3.6,'1111122,1111122,1111122' 
NDBC,ioos:station:NOAA.NDBC:VENF1:1,2016-03-11T06:00:00Z,27.0720,-82.4530,11.6,3.1,70.0,4.1,'1111122,1111122,1111122' 
NDBC,ioos:station:NOAA.NDBC:VENF1:1,2016-03-11T07:00:00Z,27.0720,-82.4530,11.6,2.6,70.0,3.6,'1111122,1111122,1111122' 
NDBC,ioos:station:NOAA.NDBC:VENF1:1,2016-03-11T08:00:00Z,27.0720,-82.4530,11.6,3.1,70.0,4.1,'1111122,1111122,1111122' 
NDBC,ioos:station:NOAA.NDBC:VENF1:1,2016-03-11T09:00:00Z,27.0720,-82.4530,11.6,4.6,90.0,6.2,'1111122,1111122,1111122' 
NDBC,ioos:station:NOAA.NDBC:VENF1:1,2016-03-11T10:00:00Z,27.0720,-82.4530,11.6,4.1,100.0,5.7,'1111122,1111122,1111122' 
NDBC,ioos:station:NOAA.NDBC:VENF1:1,2016-03-11T11:00:00Z,27.0720,-82.4530,11.6,4.6,90.0,5.7,'1111122,1111122,1111122' 
NDBC,ioos:station:NOAA.NDBC:VENF1:1,2016-03-11T12:00:00Z,27.0720,-82.4530,11.6,3.6,100.0,5.1,'1111122,1111122,1111122' 
NDBC,ioos:station:NOAA.NDBC:VENF1:1,2016-03-11T13:00:00Z,27.0720,-82.4530,11.6,4.1,100.0,5.7,'1111122,1111122,1111122' 
NDBC,ioos:station:NOAA.NDBC:VENF1:1,2016-03-11T14:00:00Z,27.0720,-82.4530,11.6,6.7,120.0,8.2,'1111122,1111122,1111122' 
NDBC,ioos:station:NOAA.NDBC:VENF1:1,2016-03-11T15:00:00Z,27.0720,-82.4530,11.6,7.2,140.0,8.2,'1111122,1111122,1111122' 
NDBC,ioos:station:NOAA.NDBC:VENF1:1,2016-03-11T16:00:00Z,27.0720,-82.4530,11.6,7.2,130.0,8.8,'1111122,1111122,1111122' 
NDBC,ioos:station:NOAA.NDBC:VENF1:1,2016-03-11T17:00:00Z,27.0720,-82.4530,11.6,6.2,170.0,6.7,'1111122,1111122,1111122' 
NDBC,ioos:station:NOAA.NDBC:VENF1:1,2016-03-11T18:00:00Z,27.0720,-82.4530,11.6,7.2,170.0,7.2,'1111122,1111122,1111122' 
NDBC,ioos:station:NOAA.NDBC:VENF1:1,2016-03-11T19:00:00Z,27.0720,-82.4530,11.6,6.2,180.0,6.7,'1111122,1111122,1111122' 
NDBC,ioos:station:NOAA.NDBC:VENF1:1,2016-03-11T20:00:00Z,27.0720,-82.4530,11.6,5.1,160.0,5.7,'1111122,1111122,1111122' 
NDBC,ioos:station:NOAA.NDBC:VENF1:1,2016-03-11T21:00:00Z,27.0720,-82.4530,11.6,6.7,160.0,7.7,'1111122,1111122,1111122' 